GW2301 Weather Reports


time (UTC)temp
F
wind
direction
speed
knots
gust
knots
rain 1hr
in
rain 24hr
in
rain mn
in
humidity
%
barometer
mb
20260906125521 72 61 0.9 3.5 0.00 0.00 0.00 90 1014.7
20260906125019 72 109 0.9 2.6 0.00 0.00 0.00 90 1014.8
20260906124635 72 35 0.9 2.6 0.00 0.00 0.00 90 1014.7
20260906124023 72 5 0.0 1.7 0.00 0.00 0.00 91 1014.5
20260906123526 71 55 0.0 2.6 0.00 0.00 0.00 90 1014.7
20260906123134 71 89 1.7 3.5 0.00 0.00 0.00 90 1014.5
20260906122517 71 86 0.0 3.5 0.00 0.00 0.00 91 1014.4
20260906122029 71 40 0.9 2.6 0.00 0.00 0.00 90 1014.3
20260906121634 71 46 0.0 2.6 0.00 0.00 0.00 91 1014.5
20260906121042 71 56 0.9 2.6 0.00 0.00 0.00 91 1014.3
20260906120524 71 49 0.0 3.5 0.00 0.00 0.00 91 1014.2
20260906120050 71 40 1.7 3.5 0.00 0.00 0.00 91 1014.2
20260906115521 71 31 0.9 2.6 0.00 0.00 0.00 91 1014.2
20260906115025 71 108 0.9 2.6 0.00 0.00 0.00 91 1014.0
20260906114630 71 50 0.9 2.6 0.00 0.00 0.00 91 1014.1
20260906114026 71 41 0.9 1.7 0.00 0.00 0.00 91 1013.8
20260906113542 71 33 0.0 2.6 0.00 0.00 0.00 91 1013.8
20260906113130 71 60 0.0 4.3 0.00 0.00 0.00 91 1013.6
20260906112546 71 97 1.7 4.3 0.00 0.00 0.00 91 1013.7
20260906112042 71 58 1.7 2.6 0.00 0.00 0.00 91 1013.6
20260906111628 71 40 0.9 3.5 0.00 0.00 0.00 91 1013.6
20260906111038 72 16 0.9 3.5 0.00 0.00 0.00 92 1013.3
20260906110524 72 37 0.9 2.6 0.00 0.00 0.00 92 1013.5
20260906110156 72 70 0.9 2.6 0.00 0.00 0.00 92 1013.2
20260906105524 72 55 0.9 2.6 0.00 0.00 0.00 92 1013.3
20260906105042 72 43 0.9 1.7 0.00 0.00 0.00 92 1013.1
20260906104636 72 34 0.0 1.7 0.00 0.00 0.00 92 1013.0
20260906104038 72 34 0.0 1.7 0.00 0.00 0.00 92 1013.0
20260906103527 72 51 0.9 2.6 0.00 0.00 0.00 92 1012.8
20260906103051 72 93 0.9 2.6 0.00 0.00 0.00 92 1012.6
20260906102531 72 59 0.0 2.6 0.00 0.00 0.00 92 1012.8
20260906102020 72 36 0.9 1.7 0.00 0.00 0.00 92 1012.8
20260906101625 72 36 0.9 1.7 0.00 0.00 0.00 92 1012.8
20260906101024 72 321 0.0 0.9 0.00 0.00 0.00 92 1012.5
20260906100532 72 321 0.0 0.9 0.00 0.00 0.00 92 1012.8
20260906100119 72 321 0.0 1.7 0.00 0.00 0.00 92 1012.6
20260906095531 72 321 0.0 1.7 0.00 0.00 0.00 92 1012.5
20260906095034 72 17 0.0 0.9 0.00 0.00 0.00 92 1012.6
20260906094645 72 17 0.0 0.0 0.00 0.00 0.00 92 1012.4
20260906094021 72 17 0.0 0.9 0.00 0.00 0.00 92 1012.5
20260906093524 72 17 0.0 0.9 0.00 0.00 0.00 92 1012.2
20260906093104 72 17 0.0 1.7 0.00 0.00 0.00 92 1012.2
20260906092516 73 17 0.0 1.7 0.00 0.00 0.00 92 1012.3
20260906092021 73 32 0.0 2.6 0.00 0.00 0.00 92 1012.4
20260906091632 73 24 0.9 2.6 0.00 0.00 0.00 92 1012.5
20260906091028 73 101 0.0 2.6 0.00 0.00 0.00 92 1012.7
20260906090537 73 46 0.9 2.6 0.00 0.00 0.00 92 1012.6
20260906090133 73 86 1.7 2.6 0.00 0.00 0.00 92 1012.6
20260906085528 73 34 0.9 2.6 0.00 0.00 0.00 92 1012.6
20260906085023 73 52 0.9 2.6 0.00 0.00 0.00 92 1012.4
20260906084628 73 39 0.0 1.7 0.00 0.00 0.00 92 1012.7
20260906084034 73 39 0.0 1.7 0.00 0.00 0.00 92 1012.5
20260906083518 73 39 0.0 1.7 0.00 0.00 0.00 92 1012.5
20260906083136 73 45 0.9 2.6 0.00 0.00 0.00 92 1012.5
20260906082527 74 31 0.0 2.6 0.00 0.00 0.00 92 1012.5
20260906082031 74 16 0.0 1.7 0.00 0.00 0.00 92 1012.7
20260906081625 73 115 0.0 0.9 0.00 0.00 0.00 92 1012.6
20260906081023 73 115 0.0 0.9 0.00 0.00 0.00 92 1012.6
20260906080543 73 115 0.0 0.0 0.00 0.00 0.00 92 1012.7
20260906080124 73 115 0.0 0.0 0.00 0.00 0.00 92 1012.5
20260906075530 73 115 0.0 0.9 0.00 0.00 0.00 92 1012.5
20260906075028 73 115 0.0 0.9 0.00 0.00 0.00 92 1012.4
20260906074634 73 115 0.0 0.9 0.00 0.00 0.00 92 1012.5
20260906074033 73 115 0.0 0.9 0.00 0.00 0.00 92 1012.4
20260906073540 73 115 0.0 0.9 0.00 0.00 0.00 92 1012.4
20260906073055 73 115 0.0 0.0 0.00 0.00 0.00 92 1012.4
20260906072518 73 115 0.0 0.9 0.00 0.00 0.00 92 1012.5
20260906072039 73 115 0.0 0.9 0.00 0.00 0.00 92 1012.4
20260906071630 73 115 0.0 0.9 0.00 0.00 0.00 92 1012.4
20260906071028 73 115 0.0 0.9 0.00 0.00 0.00 92 1012.4
20260906070523 73 115 0.0 0.0 0.00 0.00 0.00 92 1012.2
20260906070137 73 115 0.0 0.0 0.00 0.00 0.00 92 1012.3
20260906065538 73 115 0.0 0.0 0.00 0.00 0.00 92 1012.2
20260906065039 73 115 0.0 0.0 0.00 0.00 0.00 92 1012.3
20260906064632 74 115 0.0 0.0 0.00 0.00 0.00 92 1012.3
20260906064033 74 115 0.0 0.0 0.00 0.00 0.00 92 1012.4
20260906063526 74 115 0.0 0.0 0.00 0.00 0.00 92 1012.5
20260906063050 74 115 0.0 0.0 0.00 0.00 0.00 92 1012.4
20260906062538 74 115 0.0 0.0 0.00 0.00 0.00 92 1012.7
20260906062030 74 115 0.0 0.0 0.00 0.00 0.00 92 1012.7
20260906061639 74 115 0.0 0.0 0.00 0.00 0.00 92 1012.7
20260906061024 74 115 0.0 0.0 0.00 0.00 0.00 92 1012.8
20260906060547 74 115 0.0 0.0 0.00 0.00 0.00 92 1012.9
20260906060148 74 115 0.0 0.0 0.00 0.00 0.00 91 1012.9
20260906055548 74 115 0.0 0.0 0.00 0.00 0.00 91 1012.6
20260906055021 74 115 0.0 0.0 0.00 0.00 0.00 91 1012.9
20260906054652 74 115 0.0 0.0 0.00 0.00 0.00 91 1012.8
20260906054042 74 115 0.0 0.0 0.00 0.00 0.00 91 1012.7
20260906053547 74 115 0.0 0.0 0.00 0.00 0.00 91 1012.7
20260906053119 74 92 0.0 0.0 0.00 0.00 0.00 91 1012.7
20260906052534 74 92 0.0 0.0 0.00 0.00 0.00 91 1012.5
20260906052027 74 92 0.0 0.0 0.00 0.00 0.00 91 1012.6
20260906051634 75 92 0.0 0.0 0.00 0.00 0.00 91 1012.6
20260906051042 75 129 0.0 0.0 0.00 0.00 0.00 91 1012.9
20260906050528 75 129 0.0 0.0 0.00 0.00 0.00 91 1012.9
20260906050201 75 65 0.0 0.0 0.00 0.00 0.00 91 1012.8
20260906045534 75 65 0.0 0.9 0.00 0.00 0.00 91 1012.7
20260906045036 75 65 0.0 0.9 0.00 0.00 0.00 91 1012.5
20260906044650 75 65 0.0 0.0 0.00 0.00 0.00 91 1012.5
20260906044035 75 65 0.0 0.0 0.00 0.00 0.00 91 1012.5
20260906043523 75 65 0.0 0.0 0.00 0.00 0.00 90 1012.2
20260906043130 75 65 0.0 0.0 0.00 0.00 0.00 90 1012.1
20260906042526 75 65 0.0 0.9 0.00 0.00 0.00 90 1012.2
20260906042030 75 65 0.0 1.7 0.00 0.00 0.00 90 1012.2
20260906041625 75 65 0.0 1.7 0.00 0.00 0.00 90 1012.1
20260906041032 75 150 0.0 0.9 0.00 0.00 0.00 90 1012.2
20260906040526 75 150 0.0 0.9 0.00 0.00 0.00 90 1012.3
20260906040143 75 150 0.0 0.9 0.00 0.00 0.00 90 1012.2
20260906035533 75 150 0.0 1.7 0.00 0.00 0.00 90 1012.3
20260906035044 75 150 0.0 1.7 0.00 0.00 0.00 90 1012.3
20260906034624 75 150 0.0 0.9 0.00 0.00 0.00 90 1012.3
20260906034023 75 150 0.0 0.9 0.00 0.00 0.00 90 1012.4
20260906033523 75 150 0.0 0.9 0.00 0.00 0.00 90 1012.4
20260906033105 75 150 0.0 1.7 0.00 0.00 0.00 90 1012.4
20260906032537 75 148 0.0 1.7 0.00 0.00 0.00 90 1012.3
20260906032038 75 127 0.0 0.9 0.00 0.00 0.00 90 1012.3
20260906031629 75 173 0.0 0.9 0.00 0.00 0.00 90 1012.4
20260906031024 76 173 0.0 0.9 0.00 0.00 0.00 90 1012.4
20260906030543 76 173 0.0 0.9 0.00 0.00 0.00 90 1012.6
20260906030132 76 173 0.0 0.9 0.00 0.00 0.00 90 1012.6
20260906025524 76 173 0.0 0.0 0.00 0.00 0.00 89 1012.6
20260906025030 76 173 0.0 0.9 0.00 0.00 0.00 89 1012.7
20260906024636 76 173 0.0 0.9 0.00 0.00 0.00 89 1012.8
20260906024034 76 173 0.0 0.9 0.00 0.00 0.00 89 1012.8
20260906023533 76 173 0.0 0.9 0.00 0.00 0.00 89 1012.5
20260906023105 76 173 0.0 0.9 0.00 0.00 0.00 89 1012.7
20260906022532 76 173 0.0 0.9 0.00 0.00 0.00 89 1012.8
20260906022019 76 173 0.0 0.9 0.00 0.00 0.00 88 1012.8
20260906021631 76 173 0.0 1.7 0.00 0.00 0.00 88 1012.7
20260906021028 76 173 0.0 1.7 0.00 0.00 0.00 88 1012.7
20260906020542 76 173 0.0 0.9 0.00 0.00 0.00 88 1012.6
20260906020139 76 173 0.0 0.9 0.00 0.00 0.00 88 1012.5
20260906015523 76 173 0.0 1.7 0.00 0.00 0.00 87 1012.6
20260906015044 76 173 0.9 1.7 0.00 0.00 0.00 87 1012.6
20260906014618 76 173 0.9 1.7 0.00 0.00 0.00 87 1012.6
20260906014042 76 173 0.9 1.7 0.00 0.00 0.00 87 1012.5
20260906013533 76 173 0.0 0.9 0.00 0.00 0.00 87 1012.5
20260906013122 77 173 0.0 0.9 0.00 0.00 0.00 86 1012.3
20260906012527 77 173 0.0 0.9 0.00 0.00 0.00 85 1012.2
20260906012040 77 173 0.0 1.7 0.00 0.00 0.00 85 1012.2
20260906011643 77 173 0.0 1.7 0.00 0.00 0.00 85 1012.0
20260906011034 77 173 0.0 1.7 0.00 0.00 0.00 85 1011.8
20260906010523 78 173 0.0 2.6 0.00 0.00 0.00 85 1011.9
20260906010141 78 173 0.9 2.6 0.00 0.00 0.00 85 1012.0
20260906005547 78 109 0.0 1.7 0.00 0.00 0.00 85 1011.7
20260906005024 78 109 0.0 0.0 0.00 0.00 0.00 84 1012.0
20260906004619 78 109 0.0 0.9 0.00 0.00 0.00 84 1011.9
20260906004027 79 109 0.0 0.9 0.00 0.00 0.00 84 1011.9
20260906003545 79 109 0.0 0.9 0.00 0.00 0.00 83 1011.7
20260906003132 79 109 0.0 0.9 0.00 0.00 0.00 83 1011.6
20260906002524 79 109 0.0 0.9 0.00 0.00 0.00 83 1011.8
20260906002037 79 109 0.0 0.0 0.00 0.00 0.00 83 1011.7
20260906001609 80 109 0.0 0.9 0.00 0.00 0.00 83 1011.9
20260906001029 80 109 0.0 0.9 0.00 0.00 0.00 82 1011.8
20260906000523 80 109 0.0 0.9 0.00 0.00 0.00 82 1011.9
20260906000131 80 78 0.0 0.9 0.00 0.00 0.00 82 1012.0
20260905235527 80 190 0.0 0.9 0.00 0.00 0.00 82 1012.0
20260905235023 80 190 0.0 0.9 0.00 0.00 0.00 81 1012.0
20260905234627 81 190 0.0 0.9 0.00 0.00 0.00 80 1012.0
20260905234033 81 190 0.0 0.9 0.00 0.00 0.00 80 1012.0
20260905233538 81 190 0.0 0.0 0.00 0.00 0.00 79 1012.2
20260905233129 82 190 0.0 0.9 0.00 0.00 0.00 79 1012.2
20260905232529 82 190 0.0 0.9 0.00 0.00 0.00 78 1012.0
20260905232024 82 190 0.0 1.7 0.00 0.00 0.00 77 1012.1
20260905231622 82 190 0.0 0.9 0.00 0.00 0.00 77 1012.1
20260905231040 82 190 0.0 0.9 0.00 0.00 0.00 76 1012.1
20260905230541 82 190 0.0 1.7 0.00 0.00 0.00 75 1011.8
20260905230134 82 190 0.0 1.7 0.00 0.00 0.00 74 1012.0
20260905225530 83 100 0.0 1.7 0.00 0.00 0.00 74 1012.0
20260905225022 83 21 0.0 0.9 0.00 0.00 0.00 73 1012.0
20260905224632 83 21 0.0 0.9 0.00 0.00 0.00 72 1012.0
20260905224034 83 21 0.0 1.7 0.00 0.00 0.00 73 1011.9
20260905223548 83 21 0.0 1.7 0.00 0.00 0.00 73 1012.0
20260905223128 83 21 0.0 1.7 0.00 0.00 0.00 73 1011.9
20260905222533 83 21 0.0 1.7 0.00 0.00 0.00 72 1011.8
20260905222025 83 21 0.0 1.7 0.00 0.00 0.00 72 1011.8
20260905221631 84 21 0.0 0.9 0.00 0.00 0.00 71 1011.7
20260905221021 84 21 0.0 0.0 0.00 0.00 0.00 71 1011.8
20260905220537 84 21 0.0 0.9 0.00 0.00 0.00 70 1011.9
20260905220133 84 21 0.0 3.5 0.00 0.00 0.00 70 1011.8
20260905215524 84 15 0.9 3.5 0.00 0.00 0.00 69 1011.9
20260905215028 85 242 0.0 1.7 0.00 0.00 0.00 68 1012.1
20260905214635 85 301 0.0 0.9 0.00 0.00 0.00 68 1012.1
20260905214037 85 325 0.0 1.7 0.00 0.00 0.00 67 1011.9
20260905213526 85 328 0.0 1.7 0.00 0.00 0.00 66 1011.8
20260905213137 85 17 0.0 7.0 0.00 0.00 0.00 64 1011.6
20260905212530 86 30 1.7 7.0 0.00 0.00 0.00 63 1011.7
20260905212039 86 46 1.7 3.5 0.00 0.00 0.00 62 1011.8
20260905211633 87 121 1.7 5.2 0.00 0.00 0.00 62 1011.8
20260905211019 87 44 1.7 7.0 0.00 0.00 0.00 61 1011.9
20260905210530 87 68 1.7 7.0 0.00 0.00 0.00 60 1011.8
20260905210140 87 190 1.7 5.2 0.00 0.00 0.00 61 1011.8
20260905205533 87 55 0.9 5.2 0.00 0.27 0.00 62 1011.8
20260905205041 87 75 0.9 5.2 0.00 0.27 0.00 62 1011.6
20260905204622 87 37 1.7 5.2 0.00 0.27 0.00 62 1011.8
20260905204023 87 50 1.7 5.2 0.00 0.27 0.00 61 1011.7
20260905203536 87 20 0.9 5.2 0.00 0.27 0.00 61 1011.7
20260905203137 87 245 0.9 7.8 0.00 0.27 0.00 62 1011.8
20260905202535 87 31 3.5 7.8 0.00 0.27 0.00 60 1011.7
20260905202036 88 28 3.5 7.8 0.00 0.27 0.00 59 1011.6
20260905201632 88 44 1.7 5.2 0.00 0.27 0.00 59 1011.5
20260905201024 89 68 1.7 4.3 0.00 0.27 0.00 56 1011.7
20260905200535 90 10 0.9 5.2 0.00 0.27 0.00 55 1011.9
20260905200125 90 167 1.7 5.2 0.00 0.27 0.00 53 1012.0
20260905195523 91 184 1.7 5.2 0.00 0.29 0.00 52 1011.9
20260905195023 91 331 0.9 5.2 0.00 0.29 0.00 52 1012.1
20260905194632 91 42 1.7 4.3 0.00 0.29 0.00 51 1012.3
20260905194041 91 9 0.9 4.3 0.00 0.29 0.00 53 1012.1
20260905193517 90 291 0.0 3.5 0.00 0.29 0.00 52 1012.2
20260905193147 91 319 0.9 5.2 0.00 0.29 0.00 51 1012.0
20260905192525 91 67 0.9 7.8 0.00 0.29 0.00 50 1012.1
20260905192041 90 217 0.9 7.8 0.00 0.29 0.00 51 1012.2
20260905191629 90 76 0.9 3.5 0.00 0.29 0.00 51 1012.3
20260905191026 90 22 0.9 3.5 0.00 0.29 0.00 51 1012.5
20260905190531 90 23 0.9 2.6 0.00 0.29 0.00 50 1012.5
20260905190151 89 70 0.9 4.3 0.00 0.29 0.00 52 1012.5
20260905185520 89 121 2.6 5.2 0.00 0.29 0.00 51 1012.7
20260905185042 89 59 2.6 5.2 0.00 0.29 0.00 52 1012.7
20260905184635 90 82 0.9 4.3 0.00 0.29 0.00 50 1012.8
20260905184023 89 68 0.9 4.3 0.00 0.29 0.00 50 1013.0
20260905183522 89 111 1.7 4.3 0.00 0.29 0.00 52 1013.0
20260905183129 88 43 0.9 4.3 0.00 0.29 0.00 51 1013.3
20260905182542 88 93 1.7 5.2 0.00 0.29 0.00 53 1013.0
20260905182019 89 221 0.9 4.3 0.00 0.29 0.00 51 1013.1
20260905181631 89 74 2.6 4.3 0.00 0.29 0.00 50 1013.2
20260905181023 90 78 1.7 3.5 0.00 0.29 0.00 50 1013.0
20260905180539 90 134 0.0 2.6 0.00 0.29 0.00 51 1013.0
20260905180146 89 165 0.0 4.3 0.00 0.29 0.00 53 1013.3
20260905175532 88 200 0.9 4.3 0.00 0.29 0.00 54 1013.1
20260905175040 87 54 0.9 3.5 0.00 0.29 0.00 57 1013.3
20260905174631 87 88 0.9 4.3 0.00 0.29 0.00 56 1013.3
20260905174019 86 57 0.9 6.1 0.00 0.29 0.00 54 1013.3
20260905173540 86 73 2.6 6.1 0.00 0.29 0.00 55 1013.6
20260905173137 87 73 0.9 5.2 0.00 0.29 0.00 62 1013.5
20260905172520 86 214 1.7 4.3 0.00 0.29 0.00 62 1013.4
20260905172044 86 103 2.6 4.3 0.00 0.29 0.00 61 1013.6
20260905171558 88 136 0.9 3.5 0.00 0.29 0.00 63 1013.7
20260905171027 88 187 0.9 3.5 0.00 0.29 0.00 63 1013.5
20260905170527 88 85 1.7 3.5 0.00 0.29 0.00 62 1013.8
20260905170131 87 172 0.0 3.5 0.00 0.29 0.00 65 1013.7
20260905165538 86 96 0.9 3.5 0.00 0.29 0.00 65 1013.6
20260905165028 87 53 0.9 4.3 0.00 0.29 0.00 65 1013.7
20260905164641 86 286 0.9 4.3 0.00 0.29 0.00 66 1013.9
20260905164034 86 31 1.7 4.3 0.00 0.29 0.00 66 1013.7
20260905163523 86 225 2.6 4.3 0.00 0.29 0.00 66 1013.7
20260905163132 86 211 1.7 5.2 0.00 0.29 0.00 69 1013.7
20260905162544 85 196 1.7 6.1 0.00 0.29 0.00 71 1013.7
20260905162040 84 229 1.7 6.1 0.00 0.29 0.00 72 1013.6
20260905161648 83 282 2.6 7.8 0.00 0.29 0.00 73 1013.4
20260905161025 82 186 0.9 7.8 0.00 0.29 0.00 75 1013.4
20260905160540 81 196 1.7 7.0 0.00 0.29 0.00 78 1013.3
20260905160124 80 140 2.6 5.2 0.00 0.29 0.00 79 1013.6
20260905155544 79 229 2.6 5.2 0.00 0.29 0.00 79 1013.8
20260905155030 79 227 1.7 2.6 0.00 0.29 0.00 79 1013.9
20260905154621 78 174 0.0 2.6 0.00 0.29 0.00 80 1013.8
20260905154032 78 123 0.0 3.5 0.00 0.29 0.00 80 1013.4
20260905153540 78 67 0.9 3.5 0.00 0.29 0.00 80 1013.7
20260905153103 79 38 0.9 3.5 0.00 0.29 0.00 80 1013.7
20260905152525 79 200 0.9 2.6 0.00 0.29 0.00 79 1013.5
20260905152035 79 165 0.0 6.1 0.00 0.29 0.00 80 1013.6
20260905151634 79 174 2.6 7.0 0.00 0.29 0.00 80 1013.3
20260905151039 79 197 3.5 7.0 0.00 0.29 0.00 79 1013.4
20260905150535 79 190 2.6 6.1 0.00 0.29 0.00 79 1014.0
20260905150126 79 250 3.5 6.1 0.00 0.29 0.00 78 1014.1
20260905145530 79 188 2.6 5.2 0.00 0.29 0.00 78 1014.2
20260905145031 79 193 0.9 4.3 0.00 0.29 0.00 78 1014.4
20260905144600 78 262 1.7 3.5 0.00 0.29 0.00 78 1014.5
20260905144041 78 238 1.7 3.5 0.00 0.29 0.00 80 1014.7
20260905143529 77 164 0.0 1.7 0.00 0.29 0.00 81 1014.7
20260905143130 77 164 0.0 1.7 0.00 0.29 0.00 80 1014.8
20260905142534 77 153 0.0 2.6 0.00 0.29 0.00 81 1014.5
20260905142023 75 257 0.0 1.7 0.00 0.29 0.00 83 1014.7
20260905141635 76 257 0.0 2.6 0.00 0.29 0.00 81 1014.9
20260905141026 76 264 0.9 1.7 0.00 0.29 0.00 81 1014.6
20260905140520 75 86 0.0 1.7 0.00 0.29 0.00 82 1014.8
20260905140139 75 86 0.0 1.7 0.00 0.29 0.00 83 1015.0
20260905135535 76 86 0.0 3.5 0.00 0.29 0.00 82 1015.0
20260905135038 76 55 0.9 3.5 0.00 0.29 0.00 82 1015.3
20260905134637 76 113 0.0 3.5 0.00 0.29 0.00 82 1015.2
20260905134038 76 78 0.9 5.2 0.00 0.29 0.00 85 1015.2
20260905133542 76 80 0.9 5.2 0.00 0.29 0.00 87 1015.2
20260905133139 75 40 1.7 3.5 0.00 0.29 0.00 88 1015.1
20260905132517 75 35 0.9 3.5 0.00 0.29 0.00 89 1015.2
20260905132031 74 32 1.7 3.5 0.00 0.29 0.00 90 1015.6
20260905131631 74 47 0.9 3.5 0.00 0.29 0.00 90 1015.6
20260905131029 74 15 0.0 3.5 0.00 0.29 0.00 91 1015.4
20260905130518 74 75 0.9 2.6 0.00 0.29 0.00 92 1015.7
20260905130216 73 38 0.9 2.6 0.00 0.29 0.00 92 1015.5